[Iaude] MPEC J80: 2020 JQ1 [a=0.77,e=0.54,i=7.3,H=26.0]

mpec at marsden.cfa.harvard.edu mpec at marsden.cfa.harvard.edu
Fri May 15 07:49:50 EDT 2020


M.P.E.C. 2020-J80                                  Issued 2020 May 15, 11:48 UT

     The Minor Planet Electronic Circulars contain information on unusual
         minor planets and routine data on comets.  They are published
    on behalf of Division F of the International Astronomical Union by the
          Minor Planet Center, Smithsonian Astrophysical Observatory,
                          Cambridge, MA 02138, U.S.A.

             Prepared using the Tamkin Foundation Computer Network

                              MPC at CFA.HARVARD.EDU
            URL https://www.minorplanetcenter.net/    ISSN 1523-6714

                                    2020 JQ1                                    


Observations:
     K20J01Q* C2020 05 14.37353 16 13 51.18 -04 29 56.7          19.0 GVEJ080G96
     K20J01Q  C2020 05 14.37883 16 13 35.21 -04 29 08.9                VEJ080G96
     K20J01Q  C2020 05 14.38412 16 13 19.42 -04 28 20.4          19.3 GVEJ080G96
     K20J01Q  C2020 05 14.38941 16 13 03.58 -04 27 32.5                VEJ080G96
     K20J01Q  C2020 05 14.45402 16 09 53.65 -04 17 50.1          17.7 GVEJ080I52
     K20J01Q  C2020 05 14.45451 16 09 52.24 -04 17 46.3          18.7 GVEJ080I52
     K20J01Q  C2020 05 14.45499 16 09 50.86 -04 17 41.4          19.1 GVEJ080I52
     K20J01Q KC2020 05 14.94229015 49 29.65 -03 12 31.9          19.1 GVEJ080L01
     K20J01Q KC2020 05 14.94374915 49 26.21 -03 12 20.4          19.1 GVEJ080L01
     K20J01Q KC2020 05 14.94521715 49 22.70 -03 12 09.8          18.7 GVEJ080L01
     K20J01Q KC2020 05 14.94648215 49 19.68 -03 12 00.6          19.1 GVEJ080L01
     K20J01Q KC2020 05 14.97646115 48 11.98 -03 08 37.9          19.8 GVEJ080J95
     K20J01Q KC2020 05 14.98962815 47 41.20 -03 07 01.1          19.3 GVEJ080J95
     K20J01Q KC2020 05 14.99773615 47 22.32 -03 06 01.9          19.4 GVEJ080J95
     K20J01Q  C2020 05 15.01410 15 46 41.57 -03 04 01.2          19.6 VVEJ080033
     K20J01Q  C2020 05 15.01456 15 46 40.51 -03 03 57.7          19.4 VVEJ080033
     K20J01Q  C2020 05 15.01502 15 46 39.44 -03 03 54.4          19.5 VVEJ080033
     K20J01Q  C2020 05 15.06302 15 44 49.98 -02 58 07.3          19.8 VVEJ080033
     K20J01Q  C2020 05 15.06360 15 44 48.65 -02 58 02.6          19.7 VVEJ080033
     K20J01Q  C2020 05 15.06417 15 44 47.43 -02 57 58.3          19.4 VVEJ080033
     K20J01Q  C2020 05 15.15315 15 41 56.54 -02 46 24.7          18.9 GVEJ080I52
     K20J01Q  C2020 05 15.15354 15 41 55.66 -02 46 21.6          18.6 GVEJ080I52
     K20J01Q  C2020 05 15.15394 15 41 54.81 -02 46 18.9          18.8 GVEJ080I52
     K20J01Q  C2020 05 15.15433 15 41 53.97 -02 46 16.1          18.8 GVEJ080I52

Observer details:
033 Karl Schwarzschild Observatory, Tautenburg.  Observers S. Melnikov, C. 
   Hoegner, B. Stecklum.  Measurer B. Stecklum.  1.34-m f/3 Schmidt + CCD.
G96 Mt. Lemmon Survey.  Observer G. J. Leonard.  Measurers E. J. Christensen, 
   G. A. Farneth, D. C. Fuls, A. R. Gibbs, A. D. Grauer, H. Groeller, R. A. 
   Kowalski, S. M. Larson, G. J. Leonard, T. A. Pruyne, D. Rankin, R. L. Seaman,
    F. C. Shelly, K. W. Wierzchos.  1.5-m reflector + 10K CCD.
I52 Steward Observatory, Mt. Lemmon Station.  Observer D. Rankin.  Measurers E. 
   J. Christensen, G. A. Farneth, D. C. Fuls, A. R. Gibbs, A. D. Grauer, H. 
   Groeller, R. A. Kowalski, S. M. Larson, G. J. Leonard, T. A. Pruyne, D. 
   Rankin, R. L. Seaman, F. C. Shelly, K. W. Wierzchos.  1.0-m reflector + CCD.
J95 Great Shefford.  Observer P. Birtwhistle.  0.41-m f/6.3 Schmidt-Cassegrain 
   + CCD.
L01 Visnjan Observatory, Tican.  Observer K. Korlevic.  1.0-m f/2.9 reflector + 
   CCD.

Orbital elements:
2020 JQ1                                                 Earth MOID = 0.0010 AU
Epoch 2020 May 31.0 TT = JDT 2459000.5                  Veres
M 129.50220              (2000.0)            P               Q
n   1.45243411     Peri.  212.35248     +0.12389642     -0.98740680
a   0.7722153      Node   230.72438     +0.93532303     +0.14931631
e   0.5390316      Incl.    7.30092     +0.33139177     -0.05227292
P   0.68           H   26.0           G   0.15           U   8
Residuals in seconds of arc
200514 G96  0.6-  0.4+    200514 L01  0.3+  0.3+    200515 033  0.3-  0.3-
200514 G96  0.9-  0.1-    200514 L01  0.1+  0.1-    200515 033  0.2-  0.3-
200514 G96  0.4+  0.2+    200514 L01  0.0   0.3-    200515 033  0.5-  0.2+
200514 G96  0.4+  0.0     200514 J95  0.1+  0.1+    200515 033  0.4+  0.5+
200514 I52  0.3+  0.0     200514 J95  0.0   0.2+    200515 I52  0.4+  0.5-
200514 I52  0.3+  0.6-    200514 J95  0.1-  0.1+    200515 I52  0.1-  0.1-
200514 I52  0.4+  0.0     200515 033  0.2-  0.4-    200515 I52  0.2+  0.1-
200514 L01  0.3-  0.4-    200515 033  0.2-  0.2-    200515 I52  0.2+  0.0

Ephemeris:
2020 JQ1                 a,e,i = 0.77, 0.54, 7                   q = 0.3560
Date    TT    R. A. (2000) Decl.     Delta      r    Elong.  Phase     V
2020 04 15    00 59 43.8 -04 37 25   0.2172  0.7976    16.7   158.9    32.8
...
2020 04 30    00 27 14.2 -07 25 02   0.09456 0.9342    37.6   138.9    27.4
...
2020 05 08    23 05 14.0 -10 40 12   0.03641 0.9941    64.4   113.7    23.2
...
2020 05 14    16 33 25.2 -05 26 26   0.02432 1.0334   158.5    21.0    19.0
2020 05 15    15 47 17.7 -03 01 51   0.02972 1.0394   163.5    16.1    19.3
2020 05 16    15 16 20.9 -01 20 35   0.03599 1.0454   161.8    17.5    19.8
...
2020 05 22    14 06 23.1 +02 21 59   0.07957 1.0784   144.8    32.7    22.0
...
2020 05 30    13 45 10.9 +03 06 53   0.1419  1.1154   133.0    41.6    23.6
...
2020 06 14    13 40 30.2 +02 21 31   0.2620  1.1640   118.6    50.0    25.3

M. P. C. Staff               (C) Copyright 2020 MPC           M.P.E.C. 2020-J80




More information about the Iaude mailing list